This is the latest recevied weather packets stored in our database for station/object DG7FDL-7. If no packets are shown the sender has not sent any weather packets the latest 10 day(s).
| Time | Temp. | Humidity | Pressure | Rain* | Wind** | Luminosity | Snow |
|---|---|---|---|---|---|---|---|
| 1778167349 | 22.78° C | 44% | 1016.6 hPa | - | - | - | - |
| 1778162851 | 22.78° C | 46% | 1016.2 hPa | - | - | - | - |
| 1778161984 | 22.78° C | 45% | 1016.3 hPa | - | - | - | - |
| 1778161078 | 22.22° C | 46% | 1016.2 hPa | - | - | - | - |
| 1778160182 | 22.22° C | 46% | 1016.2 hPa | - | - | - | - |
| 1778159691 | 21.67° C | 46% | 1016.1 hPa | - | - | - | - |
| 1778158778 | 22.78° C | 44% | 1016 hPa | - | - | - | - |
| 1778157891 | 21.67° C | 46% | 1015.8 hPa | - | - | - | - |
| 1778156977 | 21.11° C | 46% | 1015.7 hPa | - | - | - | - |
| 1778156089 | 21.11° C | 47% | 1015.5 hPa | - | - | - | - |
| 1778155172 | 21.11° C | 47% | 1015.3 hPa | - | - | - | - |
| 1778154285 | 20.56° C | 47% | 1015.3 hPa | - | - | - | - |
| 1778153369 | 20.56° C | 48% | 1015.2 hPa | - | - | - | - |
| 1778152485 | 20.56° C | 48% | 1015.1 hPa | - | - | - | - |
| 1778151571 | 20.56° C | 46% | 1015 hPa | - | - | - | - |
| 1778150681 | 20.56° C | 46% | 1015 hPa | - | - | - | - |
| 1778149764 | 20.56° C | 45% | 1014.8 hPa | - | - | - | - |
| 1778148889 | 20.56° C | 45% | 1014.6 hPa | - | - | - | - |
| 1778147964 | 20.56° C | 45% | 1014.4 hPa | - | - | - | - |
| 1778147083 | 20.56° C | 45% | 1014.2 hPa | - | - | - | - |
| 1778146167 | 20.56° C | 46% | 1014.1 hPa | - | - | - | - |
| 1778145267 | 20.56° C | 45% | 1013.8 hPa | - | - | - | - |
| 1778144364 | 20.56° C | 45% | 1013.9 hPa | - | - | - | - |
| 1778143485 | 20.56° C | 45% | 1013.6 hPa | - | - | - | - |
| 1778142562 | 20.56° C | 45% | 1013.5 hPa | - | - | - | - |
* Rain since midnight (hover to see other rain measurements)
** Current wind speed in m/s (hover to see current wind gust speed)